Regional Weather Roundup
Issued by NWS

Home | Current Version | Previous Version | Graphics & Text | Print | Product List | Glossary On
Versions: 1 2 3 4 5 6 7 8 9 10 11 12 13 14 15 16 17 18 19 20 21 22 23 24 25 26 27 28 29 30 31 32 33 34 35 36 37 38 39 40 41 42 43 44 45 46 47 48 49 50
000
ASUS43 KDMX 220807
RWRIA

WEATHER ROUNDUP FOR IOWA
NATIONAL WEATHER SERVICE DES MOINES IA
300 AM CDT TUE JUL 22 2014

NOTE: "FAIR" INDICATES FEW OR NO CLOUDS BELOW 12,000 FEET WITH NO
SIGNIFICANT WEATHER AND/OR OBSTRUCTIONS TO VISIBILITY.

* - THESE STATIONS ARE NOT NWS STATIONS...THUS NOT UNDER NWS
QUALITY CONTROL.  THEY ALSO DO NOT REPORT WEATHER SUCH
AS PRECIPITATION OR FOG.

IAZ001>003-012>014-020>022-031>034-043>046-220900-
   NORTHWEST IOWA

CITY           SKY/WX    TMP DP  RH WIND       PRES   REMARKS
CARROLL *      CLEAR     81  73  78 SW8G15    29.87F HX  85
CHEROKEE *     CLEAR     77  77 100 SW3       29.86R
DENISON *      CLEAR     81  75  83 S7        29.86F HX  86
LE MARS *      CLEAR     77  77 100 S6        29.85S
ORANGE CITY *  CLEAR     77  73  88 CALM      29.86S FOG
SHELDON *      CLEAR     77  75  94 CALM      29.85R FOG
SIOUX CITY     PTCLDY    82  74  76 W5        29.85R HX  88
SPENCER        CLEAR     77  75  93 S6        29.85S
STORM LAKE *   CLEAR     77  77 100 SW7       29.88F
$$

IAZ055>058-069>071-079>083-090>094-220900-
   SOUTHWEST IOWA

CITY           SKY/WX    TMP DP  RH WIND       PRES   REMARKS
ATLANTIC *     PTCLDY    79  73  83 S12       29.90F HX  82
AUDUBON *      CLEAR     82  75  78 S7        29.91F HX  89
CLARINDA *     CLEAR     77  75  94 S6        29.94S
COUNCIL BLFS *   N/A     84  75  74 SW10      29.88S HX  92
CRESTON *      CLEAR     77  75  94 S14       29.94S
HARLAN  *      CLEAR     79  75  89 SW7       29.93S HX  82
LAMONI         MOCLDY    78  74  87 S10       29.96S HX  81
RED OAK *      MOCLDY    77  73  88 S7        29.91F
SHENANDOAH *     N/A     79  73  83 S9        29.92F HX  82
$$

IAZ047>049-059>061-072>074-084-220900-
   CENTRAL IOWA

CITY           SKY/WX    TMP DP  RH WIND       PRES   REMARKS
AMES           CLOUDY    80  75  84 S7        29.89F HX  85
ANKENY *       CLEAR     81  75  83 S8        29.90F HX  86
CHARITON *     CLOUDY    79  73  83 S12       29.94F HX  82
DES MOINES     MOCLDY    83  74  74 S13       29.90F HX  89
GRINNELL*      PTCLDY    75  70  83 S10G16    29.94F
KNOXVILLE *    MOCLDY    79  73  83 S12G18    29.92S HX  82
MARSHALLTOWN   CLOUDY    78  74  87 S12G22    29.91S HX  81
PELLA *        PTCLDY    79  72  78 S10G17    29.95S HX  82
PERRY *          N/A     79  75  89 S8        29.89F HX  82
$$

IAZ004>006-015-016-023>025-035-036-220900-
   NORTH CENTRAL IOWA

CITY           SKY/WX    TMP DP  RH WIND       PRES   REMARKS
ALGONA *       CLEAR     79  75  89 S13G18    29.85F HX  82
CLARION *      CLEAR     79  75  89 S10       29.87S HX  82
ESTHERVILLE    CLEAR     75  75 100 S3        29.85S FOG
FORT DODGE *   MOCLDY    79  73  83 S12G20    29.88R HX  82
MASON CITY     MOCLDY    78  75  90 S10       29.89S HX  81
FOREST CITY *  CLEAR     79  77  94 S7        29.87S HX  83
IOWA FALLS *     N/A     79  73  83 S10G17    29.91R HX  82
$$

IAZ007>011-017>019-026>030-037>042-050>054-066-220900-
   NORTHEAST IOWA

CITY           SKY/WX    TMP DP  RH WIND       PRES   REMARKS
CEDAR RAPIDS   CLEAR     74  67  78 S14       29.97S
CHARLES CITY * CLOUDY    79  73  83 S13G20    29.91S HX  82
DECORAH *      MOCLDY    75  70  83 S9G18     29.93S
DUBUQUE        CLEAR     72  69  90 S13       29.99F
MONTICELLO *   PTCLDY    73  70  88 S7G13     29.98S
OELWEIN *      CLOUDY    75  70  83 S15G22    29.95S
WATERLOO       CLOUDY    76  70  82 S13       29.91S
$$

IAZ064-065-067-068-078-220900-
   EAST CENTRAL IOWA

CITY           SKY/WX    TMP DP  RH WIND       PRES   REMARKS
DAVENPORT      CLEAR     74  66  76 S14       30.02S
IOWA CITY      CLEAR     74  69  85 S7        30.00R
MT. PLEASANT * CLEAR     73  66  78 S9        30.00S
MUSCATINE *    PTCLDY    73  68  83 CALM      30.00S
QUAD CITIES    CLEAR     74  66  76 S9        30.00F
$$

IAZ062-063-075>077-085>089-095>099-220900-
   SOUTHEAST IOWA

CITY           SKY/WX    TMP DP  RH WIND       PRES   REMARKS
BURLINGTON     CLEAR     74  68  81 S12       30.01F
FAIRFIELD *    CLEAR     75  66  73 S10       29.99S
FORT MADISON * CLEAR     73  70  88 S8        30.03S
KEOKUK *       CLEAR     75  68  78 S8        30.01S
OSKALOOSA *      N/A     73  70  88 S10       29.97F
CENTERVILLE *  CLEAR     75  72  88 S7        30.00S
OTTUMWA        CLEAR     74  69  85 S12       29.97S
WASHINGTON *   CLEAR     75  68  78 S10G18    29.99S
$$

ABBREVIATIONS USED IN REMARKS
   TC - TEMPERATURES IN CELSIUS
  WCI - WIND CHILL INDEX
   HX - HEAT INDEX
  VSB - VISIBILITY
$$



USA.gov is the U.S. government's official web portal to all federal, state and local government web resources and services.